Time,TemperatureF,DewpointF,PressureIn,WindDirection,WindDirectionDegrees,WindSpeedMPH,WindSpeedGustMPH,Humidity,HourlyPrecipIn,Conditions,Clouds,dailyrainin,SoftwareType,DateUTC
2013-04-06 00:03:00,52.0,33.9,30.11,NW,306,5.0,6.0,50,0.00,,,0.00,Wunderground v.1.15,2013-04-06 05:03:00,
2013-04-06 00:09:00,51.7,33.6,30.11,NW,325,6.0,8.0,50,0.00,,,0.00,Wunderground v.1.15,2013-04-06 05:09:00,
2013-04-06 00:14:00,51.8,34.2,30.11,NNW,340,5.0,7.0,51,0.00,,,0.00,Wunderground v.1.15,2013-04-06 05:14:00,
2013-04-06 00:20:00,51.9,33.8,30.11,NNW,334,5.0,5.0,50,0.00,,,0.00,Wunderground v.1.15,2013-04-06 05:20:00,
2013-04-06 00:26:00,52.1,34.0,30.11,NNW,334,3.0,5.0,50,0.00,,,0.00,Wunderground v.1.15,2013-04-06 05:26:00,
2013-04-06 00:32:00,52.1,34.0,30.11,NNW,343,4.0,5.0,50,0.00,,,0.00,Wunderground v.1.15,2013-04-06 05:32:00,
2013-04-06 00:38:00,52.3,34.2,30.11,NNW,346,4.0,5.0,50,0.00,,,0.00,Wunderground v.1.15,2013-04-06 05:38:00,
2013-04-06 00:43:00,52.3,33.7,30.11,WNW,298,5.0,5.0,49,0.00,,,0.00,Wunderground v.1.15,2013-04-06 05:43:00,
2013-04-06 00:49:00,52.2,34.1,30.11,WNW,300,6.0,7.0,50,0.00,,,0.00,Wunderground v.1.15,2013-04-06 05:49:00,
2013-04-06 00:54:00,52.0,33.9,30.11,NW,311,6.0,9.0,50,0.00,,,0.00,Wunderground v.1.15,2013-04-06 05:54:00,
2013-04-06 00:59:00,51.8,34.2,30.11,NW,304,7.0,9.0,51,0.00,,,0.00,Wunderground v.1.15,2013-04-06 05:59:00,
2013-04-06 01:05:00,51.4,33.9,30.11,WNW,296,5.0,7.0,51,0.00,,,0.00,Wunderground v.1.15,2013-04-06 06:05:00,
2013-04-06 01:11:00,51.2,34.2,30.11,WNW,302,6.0,6.0,52,0.00,,,0.00,Wunderground v.1.15,2013-04-06 06:11:00,
2013-04-06 01:16:00,51.1,34.1,30.11,NW,311,3.0,6.0,52,0.00,,,0.00,Wunderground v.1.15,2013-04-06 06:16:00,
2013-04-06 01:22:00,51.2,34.2,30.11,NW,311,4.0,5.0,52,0.00,,,0.00,Wunderground v.1.15,2013-04-06 06:22:00,
2013-04-06 01:27:00,51.4,33.9,30.11,NW,312,2.0,5.0,51,0.00,,,0.00,Wunderground v.1.15,2013-04-06 06:27:00,
2013-04-06 01:33:00,51.8,34.2,30.11,NW,311,3.0,4.0,51,0.00,,,0.00,Wunderground v.1.15,2013-04-06 06:33:00,
2013-04-06 01:39:00,51.9,33.8,30.10,NW,311,3.0,4.0,50,0.00,,,0.00,Wunderground v.1.15,2013-04-06 06:39:00,
2013-04-06 01:44:00,51.8,33.7,30.10,NW,311,2.0,3.0,50,0.00,,,0.00,Wunderground v.1.15,2013-04-06 06:44:00,
2013-04-06 01:50:00,51.7,34.1,30.10,NW,311,2.0,2.0,51,0.00,,,0.00,Wunderground v.1.15,2013-04-06 06:50:00,
2013-04-06 01:55:00,51.8,34.2,30.10,NW,311,3.0,3.0,51,0.00,,,0.00,Wunderground v.1.15,2013-04-06 06:55:00,
2013-04-06 02:01:00,51.8,33.7,30.10,NW,311,0.0,2.0,50,0.00,,,0.00,Wunderground v.1.15,2013-04-06 07:01:00,
2013-04-06 02:06:00,51.8,33.7,30.10,NNW,339,5.0,5.0,50,0.00,,,0.00,Wunderground v.1.15,2013-04-06 07:06:00,
2013-04-06 02:11:00,52.0,33.4,30.10,NNW,337,5.0,6.0,49,0.00,,,0.00,Wunderground v.1.15,2013-04-06 07:11:00,
2013-04-06 02:16:00,52.1,33.5,30.09,North,349,4.0,6.0,49,0.00,,,0.00,Wunderground v.1.15,2013-04-06 07:16:00,
2013-04-06 02:22:00,52.1,33.5,30.09,NNW,346,6.0,7.0,49,0.00,,,0.00,Wunderground v.1.15,2013-04-06 07:22:00,
2013-04-06 02:27:00,52.1,33.5,30.09,North,10,8.0,8.0,49,0.00,,,0.00,Wunderground v.1.15,2013-04-06 07:27:00,
2013-04-06 02:32:00,52.0,33.4,30.09,NNW,343,6.0,7.0,49,0.00,,,0.00,Wunderground v.1.15,2013-04-06 07:32:00,
2013-04-06 02:37:00,52.0,33.4,30.09,NW,319,4.0,7.0,49,0.00,,,0.00,Wunderground v.1.15,2013-04-06 07:37:00,
2013-04-06 02:42:00,51.7,33.6,30.09,WNW,302,4.0,5.0,50,0.00,,,0.00,Wunderground v.1.15,2013-04-06 07:42:00,
2013-04-06 02:47:00,51.5,34.0,30.10,WNW,302,4.0,5.0,51,0.00,,,0.00,Wunderground v.1.15,2013-04-06 07:47:00,
2013-04-06 02:52:00,51.4,33.9,30.09,WNW,302,3.0,4.0,51,0.00,,,0.00,Wunderground v.1.15,2013-04-06 07:52:00,
2013-04-06 02:57:00,51.5,33.5,30.09,NNW,328,4.0,5.0,50,0.00,,,0.00,Wunderground v.1.15,2013-04-06 07:57:00,
2013-04-06 03:02:00,51.7,33.6,30.09,NNW,327,5.0,6.0,50,0.00,,,0.00,Wunderground v.1.15,2013-04-06 08:02:00,
2013-04-06 03:07:00,51.4,33.9,30.09,NW,319,2.0,6.0,51,0.00,,,0.00,Wunderground v.1.15,2013-04-06 08:07:00,
2013-04-06 03:12:00,51.4,33.4,30.09,NNW,346,5.0,6.0,50,0.00,,,0.00,Wunderground v.1.15,2013-04-06 08:12:00,
2013-04-06 03:17:00,51.5,34.0,30.09,NW,320,4.0,6.0,51,0.00,,,0.00,Wunderground v.1.15,2013-04-06 08:17:00,
2013-04-06 03:22:00,51.3,33.8,30.09,NW,319,2.0,4.0,51,0.00,,,0.00,Wunderground v.1.15,2013-04-06 08:22:00,
2013-04-06 03:27:00,51.3,33.3,30.09,NW,320,2.0,4.0,50,0.00,,,0.00,Wunderground v.1.15,2013-04-06 08:27:00,
2013-04-06 03:32:00,51.3,32.8,30.09,North,5,4.0,6.0,49,0.00,,,0.00,Wunderground v.1.15,2013-04-06 08:32:00,
2013-04-06 03:37:00,51.5,33.0,30.09,North,355,7.0,8.0,49,0.00,,,0.00,Wunderground v.1.15,2013-04-06 08:37:00,
2013-04-06 03:42:00,51.8,33.2,30.09,North,355,7.0,7.0,49,0.00,,,0.00,Wunderground v.1.15,2013-04-06 08:42:00,
2013-04-06 03:47:00,51.9,32.8,30.09,NNE,13,6.0,7.0,48,0.00,,,0.00,Wunderground v.1.15,2013-04-06 08:47:00,
2013-04-06 03:52:00,52.2,32.6,30.09,North,10,8.0,11.0,47,0.00,,,0.00,Wunderground v.1.15,2013-04-06 08:52:00,
2013-04-06 03:57:00,52.1,32.5,30.09,NNE,15,6.0,11.0,47,0.00,,,0.00,Wunderground v.1.15,2013-04-06 08:57:00,
2013-04-06 04:02:00,52.1,32.5,30.09,North,5,7.0,7.0,47,0.00,,,0.00,Wunderground v.1.15,2013-04-06 09:02:00,
2013-04-06 04:08:00,52.0,32.4,30.09,North,5,7.0,8.0,47,0.00,,,0.00,Wunderground v.1.15,2013-04-06 09:08:00,
2013-04-06 04:13:00,52.1,33.0,30.09,NNE,15,4.0,9.0,48,0.00,,,0.00,Wunderground v.1.15,2013-04-06 09:13:00,
2013-04-06 04:18:00,51.9,32.8,30.09,NW,325,3.0,9.0,48,0.00,,,0.00,Wunderground v.1.15,2013-04-06 09:18:00,
2013-04-06 04:23:00,51.8,32.7,30.09,North,360,5.0,6.0,48,0.00,,,0.00,Wunderground v.1.15,2013-04-06 09:23:00,
2013-04-06 04:28:00,51.8,32.7,30.09,NW,324,4.0,6.0,48,0.00,,,0.00,Wunderground v.1.15,2013-04-06 09:28:00,
2013-04-06 04:33:00,51.5,33.0,30.09,NW,325,1.0,4.0,49,0.00,,,0.00,Wunderground v.1.15,2013-04-06 09:33:00,
2013-04-06 04:38:00,51.4,33.4,30.09,North,360,4.0,5.0,50,0.00,,,0.00,Wunderground v.1.15,2013-04-06 09:38:00,
2013-04-06 04:43:00,51.5,33.0,30.09,North,360,4.0,6.0,49,0.00,,,0.00,Wunderground v.1.15,2013-04-06 09:43:00,
2013-04-06 04:48:00,51.5,33.0,30.10,North,350,6.0,6.0,49,0.00,,,0.00,Wunderground v.1.15,2013-04-06 09:48:00,
2013-04-06 04:54:00,51.6,33.0,30.10,North,5,3.0,8.0,49,0.00,,,0.00,Wunderground v.1.15,2013-04-06 09:54:00,
2013-04-06 05:00:00,51.5,33.0,30.10,NNW,347,4.0,4.0,49,0.00,,,0.00,Wunderground v.1.15,2013-04-06 10:00:00,
2013-04-06 05:05:00,51.5,33.0,30.10,North,355,1.0,4.0,49,0.00,,,0.00,Wunderground v.1.15,2013-04-06 10:05:00,
2013-04-06 05:10:00,51.3,32.8,30.10,North,5,6.0,6.0,49,0.00,,,0.00,Wunderground v.1.15,2013-04-06 10:10:00,
2013-04-06 05:15:00,51.5,33.0,30.10,North,360,7.0,7.0,49,0.00,,,0.00,Wunderground v.1.15,2013-04-06 10:15:00,
2013-04-06 05:20:00,51.7,32.6,30.11,North,10,5.0,6.0,48,0.00,,,0.00,Wunderground v.1.15,2013-04-06 10:20:00,
2013-04-06 05:25:00,51.7,33.1,30.11,NW,324,1.0,6.0,49,0.00,,,0.00,Wunderground v.1.15,2013-04-06 10:25:00,
2013-04-06 05:31:00,51.5,33.0,30.11,NNW,345,1.0,3.0,49,0.00,,,0.00,Wunderground v.1.15,2013-04-06 10:31:00,
2013-04-06 05:36:00,51.5,33.0,30.11,North,5,4.0,5.0,49,0.00,,,0.00,Wunderground v.1.15,2013-04-06 10:36:00,
2013-04-06 05:41:00,51.7,32.6,30.11,North,5,4.0,4.0,48,0.00,,,0.00,Wunderground v.1.15,2013-04-06 10:41:00,
2013-04-06 05:46:00,51.6,32.5,30.11,SE,140,2.0,4.0,48,0.00,,,0.00,Wunderground v.1.15,2013-04-06 10:46:00,
2013-04-06 05:51:00,51.1,32.6,30.11,SE,140,3.0,3.0,49,0.00,,,0.00,Wunderground v.1.15,2013-04-06 10:51:00,
2013-04-06 05:56:00,50.6,32.6,30.11,ESE,109,4.0,6.0,50,0.00,,,0.00,Wunderground v.1.15,2013-04-06 10:56:00,
2013-04-06 06:01:00,50.3,32.4,30.11,ESE,106,4.0,7.0,50,0.00,,,0.00,Wunderground v.1.15,2013-04-06 11:01:00,
2013-04-06 06:07:00,50.1,32.7,30.11,ESE,109,5.0,7.0,51,0.00,,,0.00,Wunderground v.1.15,2013-04-06 11:07:00,
2013-04-06 06:12:00,49.8,32.9,30.12,ESE,102,5.0,7.0,52,0.00,,,0.00,Wunderground v.1.15,2013-04-06 11:12:00,
2013-04-06 06:17:00,49.6,32.7,30.12,East,82,6.0,7.0,52,0.00,,,0.00,Wunderground v.1.15,2013-04-06 11:17:00,
2013-04-06 06:22:00,49.7,32.8,30.12,East,90,7.0,7.0,52,0.00,,,0.00,Wunderground v.1.15,2013-04-06 11:22:00,
2013-04-06 06:27:00,49.7,32.8,30.12,East,100,5.0,7.0,52,0.00,,,0.00,Wunderground v.1.15,2013-04-06 11:27:00,
2013-04-06 06:32:00,49.6,32.7,30.13,ESE,103,4.0,5.0,52,0.00,,,0.00,Wunderground v.1.15,2013-04-06 11:32:00,
2013-04-06 06:33:00,49.6,32.7,30.13,SE,124,4.0,7.0,52,0.00,,,0.00,Wunderground v.1.15,2013-04-06 11:33:00,
2013-04-06 06:39:00,49.6,32.7,30.13,ESE,119,3.0,7.0,52,0.00,,,0.00,Wunderground v.1.15,2013-04-06 11:39:00,
2013-04-06 06:44:00,49.6,32.7,30.13,ESE,123,2.0,5.0,52,0.00,,,0.00,Wunderground v.1.15,2013-04-06 11:44:00,
2013-04-06 06:49:00,49.7,32.8,30.14,SE,124,3.0,5.0,52,0.00,,,0.00,Wunderground v.1.15,2013-04-06 11:49:00,
2013-04-06 06:54:00,49.8,33.3,30.14,SE,130,1.0,5.0,53,0.00,,,0.00,Wunderground v.1.15,2013-04-06 11:54:00,
2013-04-06 06:59:00,49.9,33.4,30.14,ESE,120,0.0,5.0,53,0.00,,,0.00,Wunderground v.1.15,2013-04-06 11:59:00,
2013-04-06 07:04:00,50.1,33.6,30.14,SE,134,2.0,7.0,53,0.00,,,0.00,Wunderground v.1.15,2013-04-06 12:04:00,
2013-04-06 07:09:00,50.2,33.7,30.14,ESE,117,0.0,7.0,53,0.00,,,0.00,Wunderground v.1.15,2013-04-06 12:09:00,
2013-04-06 07:15:00,50.4,33.9,30.14,ESE,112,2.0,5.0,53,0.00,,,0.00,Wunderground v.1.15,2013-04-06 12:15:00,
2013-04-06 07:20:00,50.6,33.6,30.14,ESE,107,4.0,7.0,52,0.00,,,0.00,Wunderground v.1.15,2013-04-06 12:20:00,
2013-04-06 07:25:00,50.7,33.7,30.14,ESE,119,5.0,5.0,52,0.00,,,0.00,Wunderground v.1.15,2013-04-06 12:25:00,
2013-04-06 07:30:00,50.8,33.8,30.14,ESE,117,2.0,4.0,52,0.00,,,0.00,Wunderground v.1.15,2013-04-06 12:30:00,
2013-04-06 07:35:00,50.8,33.8,30.14,SE,132,0.0,6.0,52,0.00,,,0.00,Wunderground v.1.15,2013-04-06 12:35:00,
2013-04-06 07:40:00,50.8,34.3,30.15,SE,146,2.0,2.0,53,0.00,,,0.00,Wunderground v.1.15,2013-04-06 12:40:00,
2013-04-06 07:45:00,50.8,33.8,30.15,ESE,121,0.0,7.0,52,0.00,,,0.00,Wunderground v.1.15,2013-04-06 12:45:00,
2013-04-06 07:50:00,50.9,33.9,30.15,ENE,69,3.0,3.0,52,0.00,,,0.00,Wunderground v.1.15,2013-04-06 12:50:00,
2013-04-06 07:55:00,51.0,34.5,30.15,East,99,8.0,8.0,53,0.00,,,0.00,Wunderground v.1.15,2013-04-06 12:55:00,
2013-04-06 08:00:00,51.1,34.1,30.15,ESE,116,2.0,4.0,52,0.00,,,0.00,Wunderground v.1.15,2013-04-06 13:00:00,
2013-04-06 08:05:00,51.3,34.3,30.15,East,84,5.0,5.0,52,0.00,,,0.00,Wunderground v.1.15,2013-04-06 13:05:00,
2013-04-06 08:10:00,51.4,34.8,30.15,SE,140,1.0,2.0,53,0.00,,,0.00,Wunderground v.1.15,2013-04-06 13:10:00,
2013-04-06 08:15:00,51.6,35.0,30.14,ESE,121,1.0,4.0,53,0.00,,,0.00,Wunderground v.1.15,2013-04-06 13:15:00,
2013-04-06 08:20:00,51.8,35.2,30.14,SSE,153,3.0,5.0,53,0.00,,,0.00,Wunderground v.1.15,2013-04-06 13:20:00,
2013-04-06 08:25:00,51.9,34.8,30.15,ESE,119,3.0,7.0,52,0.00,,,0.00,Wunderground v.1.15,2013-04-06 13:25:00,
2013-04-06 08:30:00,52.1,35.0,30.15,SE,124,5.0,6.0,52,0.00,,,0.00,Wunderground v.1.15,2013-04-06 13:30:00,
2013-04-06 08:35:00,52.4,36.2,30.15,ESE,112,0.0,6.0,54,0.00,,,0.00,Wunderground v.1.15,2013-04-06 13:35:00,
2013-04-06 08:40:00,52.7,35.6,30.15,ESE,119,2.0,3.0,52,0.00,,,0.00,Wunderground v.1.15,2013-04-06 13:40:00,
2013-04-06 08:46:00,52.8,35.6,30.14,SSE,150,1.0,5.0,52,0.00,,,0.00,Wunderground v.1.15,2013-04-06 13:46:00,
2013-04-06 08:51:00,52.8,36.1,30.15,East,95,0.0,5.0,53,0.00,,,0.00,Wunderground v.1.15,2013-04-06 13:51:00,
2013-04-06 08:56:00,53.0,35.8,30.15,ESE,116,2.0,5.0,52,0.00,,,0.00,Wunderground v.1.15,2013-04-06 13:56:00,
2013-04-06 09:01:00,53.3,35.6,30.15,SE,143,1.0,2.0,51,0.00,,,0.00,Wunderground v.1.15,2013-04-06 14:01:00,
2013-04-06 09:07:00,53.8,36.1,30.15,ESE,113,4.0,8.0,51,0.00,,,0.00,Wunderground v.1.15,2013-04-06 14:07:00,
2013-04-06 09:12:00,54.4,36.1,30.15,SE,139,3.0,4.0,50,0.00,,,0.00,Wunderground v.1.15,2013-04-06 14:12:00,
2013-04-06 09:17:00,54.6,35.8,30.15,SE,129,0.0,7.0,49,0.00,,,0.00,Wunderground v.1.15,2013-04-06 14:17:00,
2013-04-06 09:22:00,54.8,36.0,30.15,ESE,102,2.0,5.0,49,0.00,,,0.00,Wunderground v.1.15,2013-04-06 14:22:00,
2013-04-06 09:27:00,54.8,35.5,30.15,SE,133,0.0,9.0,48,0.00,,,0.00,Wunderground v.1.15,2013-04-06 14:27:00,
2013-04-06 09:32:00,55.2,35.8,30.15,ESE,107,5.0,6.0,48,0.00,,,0.00,Wunderground v.1.15,2013-04-06 14:32:00,
2013-04-06 09:37:00,55.7,35.2,30.15,SE,130,6.0,9.0,46,0.00,,,0.00,Wunderground v.1.15,2013-04-06 14:37:00,
2013-04-06 09:42:00,56.2,36.2,30.15,SE,140,2.0,7.0,47,0.00,,,0.00,Wunderground v.1.15,2013-04-06 14:42:00,
2013-04-06 09:47:00,56.6,34.9,30.15,SE,130,4.0,7.0,44,0.00,,,0.00,Wunderground v.1.15,2013-04-06 14:47:00,
2013-04-06 09:52:00,56.9,35.2,30.15,SE,138,0.0,7.0,44,0.00,,,0.00,Wunderground v.1.15,2013-04-06 14:52:00,
2013-04-06 09:57:00,57.2,36.0,30.15,ESE,105,4.0,7.0,45,0.00,,,0.00,Wunderground v.1.15,2013-04-06 14:57:00,
2013-04-06 10:02:00,57.4,36.2,30.15,SSE,163,1.0,5.0,45,0.00,,,0.00,Wunderground v.1.15,2013-04-06 15:02:00,
2013-04-06 10:07:00,57.7,35.9,30.16,ESE,123,7.0,7.0,44,0.00,,,0.00,Wunderground v.1.15,2013-04-06 15:07:00,
2013-04-06 10:12:00,57.7,35.3,30.16,East,82,1.0,3.0,43,0.00,,,0.00,Wunderground v.1.15,2013-04-06 15:12:00,
2013-04-06 10:17:00,58.0,35.6,30.15,SSE,150,3.0,4.0,43,0.00,,,0.00,Wunderground v.1.15,2013-04-06 15:17:00,
2013-04-06 10:22:00,58.4,36.6,30.15,ESE,123,1.0,5.0,44,0.00,,,0.00,Wunderground v.1.15,2013-04-06 15:22:00,
2013-04-06 10:27:00,58.6,35.0,30.15,East,89,5.0,7.0,41,0.00,,,0.00,Wunderground v.1.15,2013-04-06 15:27:00,
2013-04-06 10:33:00,58.6,35.6,30.16,ESE,105,3.0,7.0,42,0.00,,,0.00,Wunderground v.1.15,2013-04-06 15:33:00,
2013-04-06 10:38:00,58.8,35.1,30.16,ESE,103,2.0,8.0,41,0.00,,,0.00,Wunderground v.1.15,2013-04-06 15:38:00,
2013-04-06 10:43:00,59.2,35.5,30.16,South,174,0.0,7.0,41,0.00,,,0.00,Wunderground v.1.15,2013-04-06 15:43:00,
2013-04-06 10:48:00,59.1,34.1,30.16,ENE,76,1.0,8.0,39,0.00,,,0.00,Wunderground v.1.15,2013-04-06 15:48:00,
2013-04-06 10:54:00,59.1,34.1,30.15,NNE,25,2.0,9.0,39,0.00,,,0.00,Wunderground v.1.15,2013-04-06 15:54:00,
2013-04-06 10:59:00,59.2,32.9,30.15,ESE,109,3.0,11.0,37,0.00,,,0.00,Wunderground v.1.15,2013-04-06 15:59:00,
2013-04-06 11:04:00,59.5,35.8,30.15,SE,128,5.0,5.0,41,0.00,,,0.00,Wunderground v.1.15,2013-04-06 16:04:00,
2013-04-06 11:09:00,60.2,34.5,30.15,East,95,1.0,5.0,38,0.00,,,0.00,Wunderground v.1.15,2013-04-06 16:09:00,
2013-04-06 11:14:00,60.5,34.1,30.15,SE,136,3.0,9.0,37,0.00,,,0.00,Wunderground v.1.15,2013-04-06 16:14:00,
2013-04-06 11:19:00,60.6,34.8,30.15,SE,134,3.0,9.0,38,0.00,,,0.00,Wunderground v.1.15,2013-04-06 16:19:00,
2013-04-06 11:24:00,60.7,34.9,30.14,South,178,11.0,14.0,38,0.00,,,0.00,Wunderground v.1.15,2013-04-06 16:24:00,
2013-04-06 11:29:00,60.5,33.4,30.14,SE,146,2.0,14.0,36,0.00,,,0.00,Wunderground v.1.15,2013-04-06 16:29:00,
2013-04-06 11:34:00,60.6,34.2,30.14,SE,141,0.0,8.0,37,0.00,,,0.00,Wunderground v.1.15,2013-04-06 16:34:00,
2013-04-06 11:40:00,60.9,33.7,30.14,SSE,160,5.0,5.0,36,0.00,,,0.00,Wunderground v.1.15,2013-04-06 16:40:00,
2013-04-06 11:45:00,61.2,34.0,30.14,SE,136,3.0,10.0,36,0.00,,,0.00,Wunderground v.1.15,2013-04-06 16:45:00,
2013-04-06 11:50:00,61.6,32.9,30.14,ESE,115,2.0,11.0,34,0.00,,,0.00,Wunderground v.1.15,2013-04-06 16:50:00,
2013-04-06 11:55:00,61.5,34.3,30.14,ESE,105,3.0,6.0,36,0.00,,,0.00,Wunderground v.1.15,2013-04-06 16:55:00,
2013-04-06 12:00:00,61.6,32.9,30.14,SE,144,2.0,3.0,34,0.00,,,0.00,Wunderground v.1.15,2013-04-06 17:00:00,
2013-04-06 12:05:00,61.9,34.6,30.14,SE,126,3.0,11.0,36,0.00,,,0.00,Wunderground v.1.15,2013-04-06 17:05:00,
2013-04-06 12:10:00,62.3,37.7,30.13,SE,132,8.0,8.0,40,0.00,,,0.00,Wunderground v.1.15,2013-04-06 17:10:00,
2013-04-06 12:15:00,62.6,36.6,30.13,South,171,5.0,10.0,38,0.00,,,0.00,Wunderground v.1.15,2013-04-06 17:15:00,
2013-04-06 12:20:00,62.6,36.6,30.13,NW,320,0.0,4.0,38,0.00,,,0.00,Wunderground v.1.15,2013-04-06 17:20:00,
2013-04-06 12:25:00,62.7,36.0,30.13,East,96,5.0,8.0,37,0.00,,,0.00,Wunderground v.1.15,2013-04-06 17:25:00,
2013-04-06 12:30:00,62.9,36.2,30.12,SE,136,2.0,3.0,37,0.00,,,0.00,Wunderground v.1.15,2013-04-06 17:30:00,
2013-04-06 12:35:00,63.3,37.2,30.12,SSE,165,5.0,10.0,38,0.00,,,0.00,Wunderground v.1.15,2013-04-06 17:35:00,
2013-04-06 12:40:00,63.2,36.5,30.12,SSW,205,3.0,7.0,37,0.00,,,0.00,Wunderground v.1.15,2013-04-06 17:40:00,
2013-04-06 12:45:00,63.1,35.7,30.12,SSE,150,3.0,7.0,36,0.00,,,0.00,Wunderground v.1.15,2013-04-06 17:45:00,
2013-04-06 12:50:00,63.0,37.0,30.11,South,171,2.0,5.0,38,0.00,,,0.00,Wunderground v.1.15,2013-04-06 17:50:00,
2013-04-06 12:55:00,63.1,37.7,30.11,South,182,3.0,5.0,39,0.00,,,0.00,Wunderground v.1.15,2013-04-06 17:55:00,
2013-04-06 13:00:00,63.3,35.9,30.11,South,184,6.0,8.0,36,0.00,,,0.00,Wunderground v.1.15,2013-04-06 18:00:00,
2013-04-06 13:05:00,63.2,35.8,30.11,WSW,240,0.0,11.0,36,0.00,,,0.00,Wunderground v.1.15,2013-04-06 18:05:00,
2013-04-06 13:10:00,63.3,37.2,30.11,SE,146,1.0,4.0,38,0.00,,,0.00,Wunderground v.1.15,2013-04-06 18:10:00,
2013-04-06 13:15:00,63.7,36.2,30.10,SW,227,0.0,4.0,36,0.00,,,0.00,Wunderground v.1.15,2013-04-06 18:15:00,
2013-04-06 13:20:00,64.0,37.2,30.10,ESE,115,4.0,5.0,37,0.00,,,0.00,Wunderground v.1.15,2013-04-06 18:20:00,
2013-04-06 13:25:00,64.4,37.5,30.10,ESE,111,3.0,6.0,37,0.00,,,0.00,Wunderground v.1.15,2013-04-06 18:25:00,
2013-04-06 13:30:00,64.5,37.6,30.09,South,179,6.0,9.0,37,0.00,,,0.00,Wunderground v.1.15,2013-04-06 18:30:00,
2013-04-06 13:35:00,64.3,38.1,30.09,SSE,167,1.0,9.0,38,0.00,,,0.00,Wunderground v.1.15,2013-04-06 18:35:00,
2013-04-06 13:40:00,64.4,37.5,30.09,South,177,4.0,7.0,37,0.00,,,0.00,Wunderground v.1.15,2013-04-06 18:40:00,
2013-04-06 13:45:00,64.3,38.8,30.09,SE,143,6.0,9.0,39,0.00,,,0.00,Wunderground v.1.15,2013-04-06 18:45:00,
2013-04-06 13:50:00,64.6,38.4,30.09,South,180,4.0,5.0,38,0.00,,,0.00,Wunderground v.1.15,2013-04-06 18:50:00,
2013-04-06 13:55:00,65.0,41.3,30.09,NE,44,3.0,11.0,42,0.00,,,0.00,Wunderground v.1.15,2013-04-06 18:55:00,
2013-04-06 14:00:00,65.4,39.8,30.08,SSE,158,4.0,4.0,39,0.00,,,0.00,Wunderground v.1.15,2013-04-06 19:00:00,
2013-04-06 14:05:00,65.8,40.1,30.08,WSW,251,1.0,12.0,39,0.00,,,0.00,Wunderground v.1.15,2013-04-06 19:05:00,
2013-04-06 14:10:00,65.8,39.5,30.08,East,79,1.0,5.0,38,0.00,,,0.00,Wunderground v.1.15,2013-04-06 19:10:00,
2013-04-06 14:15:00,65.7,40.1,30.07,SSE,157,7.0,9.0,39,0.00,,,0.00,Wunderground v.1.15,2013-04-06 19:15:00,
2013-04-06 14:21:00,65.6,39.3,30.07,SSE,148,5.0,7.0,38,0.00,,,0.00,Wunderground v.1.15,2013-04-06 19:21:00,
2013-04-06 14:26:00,65.6,39.3,30.07,SE,132,8.0,8.0,38,0.00,,,0.00,Wunderground v.1.15,2013-04-06 19:26:00,
2013-04-06 14:31:00,65.6,38.6,30.07,SE,127,1.0,3.0,37,0.00,,,0.00,Wunderground v.1.15,2013-04-06 19:31:00,
2013-04-06 14:36:00,65.7,38.7,30.06,SSE,163,1.0,5.0,37,0.00,,,0.00,Wunderground v.1.15,2013-04-06 19:36:00,
2013-04-06 14:41:00,65.7,39.4,30.06,SSW,196,7.0,7.0,38,0.00,,,0.00,Wunderground v.1.15,2013-04-06 19:41:00,
2013-04-06 14:46:00,65.6,38.6,30.06,East,96,1.0,10.0,37,0.00,,,0.00,Wunderground v.1.15,2013-04-06 19:46:00,
2013-04-06 14:52:00,65.5,38.5,30.06,SSE,150,7.0,7.0,37,0.00,,,0.00,Wunderground v.1.15,2013-04-06 19:52:00,
2013-04-06 14:57:00,65.6,38.6,30.06,SE,132,0.0,7.0,37,0.00,,,0.00,Wunderground v.1.15,2013-04-06 19:57:00,
2013-04-06 15:02:00,65.9,38.2,30.05,East,93,2.0,4.0,36,0.00,,,0.00,Wunderground v.1.15,2013-04-06 20:02:00,
2013-04-06 15:07:00,66.1,39.1,30.05,SE,136,0.0,7.0,37,0.00,,,0.00,Wunderground v.1.15,2013-04-06 20:07:00,
2013-04-06 15:12:00,66.3,38.5,30.05,East,90,1.0,5.0,36,0.00,,,0.00,Wunderground v.1.15,2013-04-06 20:12:00,
2013-04-06 15:17:00,66.5,38.0,30.05,SSE,150,2.0,5.0,35,0.00,,,0.00,Wunderground v.1.15,2013-04-06 20:17:00,
2013-04-06 15:22:00,66.4,39.3,30.05,SE,138,4.0,8.0,37,0.00,,,0.00,Wunderground v.1.15,2013-04-06 20:22:00,
2013-04-06 15:27:00,66.6,37.3,30.04,WNW,286,3.0,9.0,34,0.00,,,0.00,Wunderground v.1.15,2013-04-06 20:27:00,
2013-04-06 15:32:00,66.3,37.8,30.04,South,171,4.0,11.0,35,0.00,,,0.00,Wunderground v.1.15,2013-04-06 20:32:00,
2013-04-06 15:37:00,66.4,37.9,30.04,SSW,193,6.0,11.0,35,0.00,,,0.00,Wunderground v.1.15,2013-04-06 20:37:00,
2013-04-06 15:42:00,66.9,39.8,30.04,SSW,202,3.0,6.0,37,0.00,,,0.00,Wunderground v.1.15,2013-04-06 20:42:00,
2013-04-06 15:47:00,67.2,38.6,30.04,South,175,3.0,9.0,35,0.00,,,0.00,Wunderground v.1.15,2013-04-06 20:47:00,
2013-04-06 15:52:00,67.8,38.4,30.04,South,187,1.0,6.0,34,0.00,,,0.00,Wunderground v.1.15,2013-04-06 20:52:00,
2013-04-06 15:57:00,67.6,38.2,30.04,SE,143,1.0,7.0,34,0.00,,,0.00,Wunderground v.1.15,2013-04-06 20:57:00,
2013-04-06 16:02:00,66.9,37.6,30.03,SE,129,7.0,8.0,34,0.00,,,0.00,Wunderground v.1.15,2013-04-06 21:02:00,
2013-04-06 16:07:00,66.2,37.7,30.03,SE,140,1.0,11.0,35,0.00,,,0.00,Wunderground v.1.15,2013-04-06 21:07:00,
2013-04-06 16:12:00,66.2,39.1,30.04,SW,224,3.0,5.0,37,0.00,,,0.00,Wunderground v.1.15,2013-04-06 21:12:00,
2013-04-06 16:17:00,66.5,38.7,30.03,South,171,3.0,8.0,36,0.00,,,0.00,Wunderground v.1.15,2013-04-06 21:17:00,
2013-04-06 16:22:00,66.8,39.0,30.03,South,169,1.0,4.0,36,0.00,,,0.00,Wunderground v.1.15,2013-04-06 21:22:00,
2013-04-06 16:27:00,67.2,39.3,30.03,SSW,197,2.0,7.0,36,0.00,,,0.00,Wunderground v.1.15,2013-04-06 21:27:00,
2013-04-06 16:32:00,67.6,39.0,30.03,East,95,3.0,10.0,35,0.00,,,0.00,Wunderground v.1.15,2013-04-06 21:32:00,
2013-04-06 16:37:00,67.8,39.1,30.03,SE,140,2.0,10.0,35,0.00,,,0.00,Wunderground v.1.15,2013-04-06 21:37:00,
2013-04-06 16:42:00,67.4,39.5,30.03,ESE,122,3.0,6.0,36,0.00,,,0.00,Wunderground v.1.15,2013-04-06 21:42:00,
2013-04-06 16:47:00,67.2,40.0,30.03,SSW,194,0.0,9.0,37,0.00,,,0.00,Wunderground v.1.15,2013-04-06 21:47:00,
2013-04-06 16:52:00,67.4,39.5,30.03,South,171,2.0,5.0,36,0.00,,,0.00,Wunderground v.1.15,2013-04-06 21:52:00,
2013-04-06 16:57:00,67.9,39.2,30.03,South,184,5.0,7.0,35,0.00,,,0.00,Wunderground v.1.15,2013-04-06 21:57:00,
2013-04-06 17:02:00,67.9,39.2,30.03,ESE,119,1.0,4.0,35,0.00,,,0.00,Wunderground v.1.15,2013-04-06 22:02:00,
2013-04-06 17:07:00,67.8,39.9,30.03,SSW,195,4.0,7.0,36,0.00,,,0.00,Wunderground v.1.15,2013-04-06 22:07:00,
2013-04-06 17:12:00,67.7,39.0,30.03,SSE,148,4.0,6.0,35,0.00,,,0.00,Wunderground v.1.15,2013-04-06 22:12:00,
2013-04-06 17:17:00,67.8,41.3,30.03,ESE,118,1.0,6.0,38,0.00,,,0.00,Wunderground v.1.15,2013-04-06 22:17:00,
2013-04-06 17:22:00,67.7,39.8,30.03,ESE,117,7.0,10.0,36,0.00,,,0.00,Wunderground v.1.15,2013-04-06 22:22:00,
2013-04-06 17:27:00,67.4,39.5,30.03,WSW,252,5.0,11.0,36,0.00,,,0.00,Wunderground v.1.15,2013-04-06 22:27:00,
2013-04-06 17:32:00,67.1,39.2,30.02,South,175,4.0,9.0,36,0.00,,,0.00,Wunderground v.1.15,2013-04-06 22:32:00,
2013-04-06 17:38:00,66.9,39.8,30.03,ESE,119,3.0,9.0,37,0.00,,,0.00,Wunderground v.1.15,2013-04-06 22:38:00,
2013-04-06 17:43:00,66.4,38.6,30.02,SSE,151,8.0,11.0,36,0.00,,,0.00,Wunderground v.1.15,2013-04-06 22:43:00,
2013-04-06 17:48:00,65.6,38.6,30.02,SE,136,7.0,11.0,37,0.00,,,0.00,Wunderground v.1.15,2013-04-06 22:48:00,
2013-04-06 17:53:00,64.8,39.2,30.02,South,174,6.0,6.0,39,0.00,,,0.00,Wunderground v.1.15,2013-04-06 22:53:00,
2013-04-06 17:58:00,64.3,38.8,30.02,SSE,148,3.0,8.0,39,0.00,,,0.00,Wunderground v.1.15,2013-04-06 22:58:00,
2013-04-06 18:04:00,63.8,39.0,30.02,SE,135,1.0,8.0,40,0.00,,,0.00,Wunderground v.1.15,2013-04-06 23:04:00,
2013-04-06 18:09:00,63.4,38.6,30.02,SE,137,3.0,8.0,40,0.00,,,0.00,Wunderground v.1.15,2013-04-06 23:09:00,
2013-04-06 18:14:00,63.2,38.5,30.02,SE,142,5.0,5.0,40,0.00,,,0.00,Wunderground v.1.15,2013-04-06 23:14:00,
2013-04-06 18:19:00,63.0,38.9,30.02,South,183,3.0,6.0,41,0.00,,,0.00,Wunderground v.1.15,2013-04-06 23:19:00,
2013-04-06 18:25:00,62.7,38.0,30.02,SE,142,2.0,8.0,40,0.00,,,0.00,Wunderground v.1.15,2013-04-06 23:25:00,
2013-04-06 18:30:00,62.7,38.6,30.01,ENE,76,1.0,8.0,41,0.00,,,0.00,Wunderground v.1.15,2013-04-06 23:30:00,
2013-04-06 18:35:00,62.6,37.9,30.02,SSE,150,1.0,7.0,40,0.00,,,0.00,Wunderground v.1.15,2013-04-06 23:35:00,
2013-04-06 18:40:00,62.5,37.8,30.02,SSE,164,0.0,3.0,40,0.00,,,0.00,Wunderground v.1.15,2013-04-06 23:40:00,
2013-04-06 18:45:00,62.3,38.3,30.02,SE,142,1.0,7.0,41,0.00,,,0.00,Wunderground v.1.15,2013-04-06 23:45:00,
2013-04-06 18:50:00,62.0,38.0,30.02,ESE,121,3.0,3.0,41,0.00,,,0.00,Wunderground v.1.15,2013-04-06 23:50:00,
2013-04-06 18:55:00,61.8,38.4,30.02,SE,144,4.0,5.0,42,0.00,,,0.00,Wunderground v.1.15,2013-04-06 23:55:00,
2013-04-06 19:00:00,61.5,38.8,30.02,SSE,148,2.0,2.0,43,0.00,,,0.00,Wunderground v.1.15,2013-04-07 00:00:00,
2013-04-06 19:05:00,61.3,38.0,30.01,SSE,155,0.0,7.0,42,0.00,,,0.00,Wunderground v.1.15,2013-04-07 00:05:00,
2013-04-06 19:10:00,61.0,37.7,30.02,SSE,148,3.0,3.0,42,0.00,,,0.00,Wunderground v.1.15,2013-04-07 00:10:00,
2013-04-06 19:15:00,60.7,37.5,30.02,SSE,161,3.0,7.0,42,0.00,,,0.00,Wunderground v.1.15,2013-04-07 00:15:00,
2013-04-06 19:21:00,60.4,37.8,30.02,SE,132,0.0,2.0,43,0.00,,,0.00,Wunderground v.1.15,2013-04-07 00:21:00,
2013-04-06 19:26:00,60.0,38.0,30.02,SE,130,0.0,4.0,44,0.00,,,0.00,Wunderground v.1.15,2013-04-07 00:26:00,
2013-04-06 19:31:00,59.8,37.8,30.01,SE,138,3.0,5.0,44,0.00,,,0.00,Wunderground v.1.15,2013-04-07 00:31:00,
2013-04-06 19:36:00,59.5,38.1,30.01,SSE,159,2.0,8.0,45,0.00,,,0.00,Wunderground v.1.15,2013-04-07 00:36:00,
2013-04-06 19:42:00,59.2,38.4,30.01,SSE,167,0.0,4.0,46,0.00,,,0.00,Wunderground v.1.15,2013-04-07 00:42:00,
2013-04-06 19:47:00,59.0,38.2,30.01,SE,134,0.0,6.0,46,0.00,,,0.00,Wunderground v.1.15,2013-04-07 00:47:00,
2013-04-06 19:52:00,58.8,38.6,30.01,SE,134,6.0,6.0,47,0.00,,,0.00,Wunderground v.1.15,2013-04-07 00:52:00,
2013-04-06 19:57:00,58.7,38.5,30.01,SE,139,4.0,6.0,47,0.00,,,0.00,Wunderground v.1.15,2013-04-07 00:57:00,
2013-04-06 20:02:00,58.6,38.4,30.02,SE,133,3.0,5.0,47,0.00,,,0.00,Wunderground v.1.15,2013-04-07 01:02:00,
2013-04-06 20:07:00,58.5,38.3,30.02,SE,130,6.0,6.0,47,0.00,,,0.00,Wunderground v.1.15,2013-04-07 01:07:00,
2013-04-06 20:12:00,58.6,38.4,30.02,SE,130,1.0,4.0,47,0.00,,,0.00,Wunderground v.1.15,2013-04-07 01:12:00,
2013-04-06 20:17:00,58.5,38.9,30.02,SE,146,3.0,10.0,48,0.00,,,0.00,Wunderground v.1.15,2013-04-07 01:17:00,
2013-04-06 20:22:00,58.4,38.2,30.02,East,88,0.0,3.0,47,0.00,,,0.00,Wunderground v.1.15,2013-04-07 01:22:00,
2013-04-06 20:27:00,58.4,38.8,30.02,NE,44,1.0,7.0,48,0.00,,,0.00,Wunderground v.1.15,2013-04-07 01:27:00,
2013-04-06 20:32:00,58.2,38.6,30.02,ESE,117,7.0,7.0,48,0.00,,,0.00,Wunderground v.1.15,2013-04-07 01:32:00,
2013-04-06 20:37:00,58.1,39.0,30.02,SE,127,3.0,8.0,49,0.00,,,0.00,Wunderground v.1.15,2013-04-07 01:37:00,
2013-04-06 20:42:00,57.9,39.4,30.02,NW,311,0.0,4.0,50,0.00,,,0.00,Wunderground v.1.15,2013-04-07 01:42:00,
2013-04-06 20:47:00,57.8,38.8,30.02,SSE,161,1.0,5.0,49,0.00,,,0.00,Wunderground v.1.15,2013-04-07 01:47:00,
2013-04-06 20:52:00,57.8,38.8,30.03,ESE,105,3.0,10.0,49,0.00,,,0.00,Wunderground v.1.15,2013-04-07 01:52:00,
2013-04-06 20:57:00,57.8,38.8,30.02,SE,138,3.0,10.0,49,0.00,,,0.00,Wunderground v.1.15,2013-04-07 01:57:00,
2013-04-06 21:02:00,57.8,38.8,30.02,ESE,113,7.0,11.0,49,0.00,,,0.00,Wunderground v.1.15,2013-04-07 02:02:00,
2013-04-06 21:07:00,57.9,38.3,30.02,East,101,3.0,11.0,48,0.00,,,0.00,Wunderground v.1.15,2013-04-07 02:07:00,
2013-04-06 21:12:00,57.9,38.3,30.02,ESE,118,7.0,12.0,48,0.00,,,0.00,Wunderground v.1.15,2013-04-07 02:12:00,
2013-04-06 21:17:00,57.9,38.3,30.03,ENE,75,5.0,12.0,48,0.00,,,0.00,Wunderground v.1.15,2013-04-07 02:17:00,
2013-04-06 21:22:00,57.9,37.8,30.03,SSE,148,4.0,10.0,47,0.00,,,0.00,Wunderground v.1.15,2013-04-07 02:22:00,
2013-04-06 21:27:00,57.8,38.2,30.03,SSE,166,4.0,11.0,48,0.00,,,0.00,Wunderground v.1.15,2013-04-07 02:27:00,
2013-04-06 21:32:00,57.8,37.7,30.03,SW,222,2.0,10.0,47,0.00,,,0.00,Wunderground v.1.15,2013-04-07 02:32:00,
2013-04-06 21:37:00,57.6,38.0,30.03,NNW,331,3.0,10.0,48,0.00,,,0.00,Wunderground v.1.15,2013-04-07 02:37:00,
2013-04-06 21:42:00,57.4,37.9,30.03,NW,325,0.0,7.0,48,0.00,,,0.00,Wunderground v.1.15,2013-04-07 02:42:00,
2013-04-06 21:47:00,57.2,37.7,30.03,ESE,113,1.0,8.0,48,0.00,,,0.00,Wunderground v.1.15,2013-04-07 02:47:00,
2013-04-06 21:52:00,57.1,37.6,30.03,WNW,283,3.0,10.0,48,0.00,,,0.00,Wunderground v.1.15,2013-04-07 02:52:00,
2013-04-06 21:58:00,57.0,37.5,30.03,South,184,1.0,10.0,48,0.00,,,0.00,Wunderground v.1.15,2013-04-07 02:58:00,
2013-04-06 22:02:00,56.9,37.9,30.03,SE,136,4.0,12.0,49,0.00,,,0.00,Wunderground v.1.15,2013-04-07 03:02:00,
2013-04-06 22:08:00,56.7,37.2,30.03,ESE,117,5.0,12.0,48,0.00,,,0.00,Wunderground v.1.15,2013-04-07 03:08:00,
2013-04-06 22:13:00,56.7,37.7,30.03,SE,125,4.0,9.0,49,0.00,,,0.00,Wunderground v.1.15,2013-04-07 03:13:00,
2013-04-06 22:18:00,56.5,37.6,30.03,ESE,111,2.0,12.0,49,0.00,,,0.00,Wunderground v.1.15,2013-04-07 03:18:00,
2013-04-06 22:23:00,56.6,37.6,30.04,WSW,238,2.0,14.0,49,0.00,,,0.00,Wunderground v.1.15,2013-04-07 03:23:00,
2013-04-06 22:28:00,56.6,37.6,30.04,ESE,107,3.0,14.0,49,0.00,,,0.00,Wunderground v.1.15,2013-04-07 03:28:00,
2013-04-06 22:34:00,56.6,37.6,30.04,SW,218,4.0,9.0,49,0.00,,,0.00,Wunderground v.1.15,2013-04-07 03:34:00,
2013-04-06 22:39:00,56.6,37.6,30.04,SSW,192,7.0,11.0,49,0.00,,,0.00,Wunderground v.1.15,2013-04-07 03:39:00,
2013-04-06 22:44:00,56.4,37.5,30.04,SW,232,1.0,9.0,49,0.00,,,0.00,Wunderground v.1.15,2013-04-07 03:44:00,
2013-04-06 22:49:00,56.4,37.5,30.04,ESE,103,4.0,9.0,49,0.00,,,0.00,Wunderground v.1.15,2013-04-07 03:49:00,
2013-04-06 22:54:00,56.5,37.6,30.04,SE,142,2.0,12.0,49,0.00,,,0.00,Wunderground v.1.15,2013-04-07 03:54:00,
2013-04-06 23:00:00,56.6,37.6,30.04,NE,53,4.0,13.0,49,0.00,,,0.00,Wunderground v.1.15,2013-04-07 04:00:00,
2013-04-06 23:01:00,56.6,37.6,30.04,SE,131,5.0,6.0,49,0.00,,,0.00,Wunderground v.1.15,2013-04-07 04:01:00,
2013-04-06 23:02:00,56.5,37.6,30.04,SSW,207,7.0,7.0,49,0.00,,,0.00,Wunderground v.1.15,2013-04-07 04:02:00,
2013-04-06 23:07:00,56.4,37.5,30.04,SSE,157,8.0,13.0,49,0.00,,,0.00,Wunderground v.1.15,2013-04-07 04:07:00,
2013-04-06 23:12:00,56.4,37.5,30.04,SE,132,7.0,12.0,49,0.00,,,0.00,Wunderground v.1.15,2013-04-07 04:12:00,
2013-04-06 23:17:00,56.4,38.0,30.04,SSE,162,5.0,12.0,50,0.00,,,0.00,Wunderground v.1.15,2013-04-07 04:17:00,
2013-04-06 23:22:00,56.4,37.5,30.04,ESE,113,8.0,9.0,49,0.00,,,0.00,Wunderground v.1.15,2013-04-07 04:22:00,
2013-04-06 23:27:00,56.2,37.8,30.05,SE,135,6.0,11.0,50,0.00,,,0.00,Wunderground v.1.15,2013-04-07 04:27:00,
2013-04-06 23:32:00,56.1,37.7,30.05,SE,129,4.0,13.0,50,0.00,,,0.00,Wunderground v.1.15,2013-04-07 04:32:00,
2013-04-06 23:37:00,56.0,37.6,30.05,NW,322,1.0,13.0,50,0.00,,,0.00,Wunderground v.1.15,2013-04-07 04:37:00,
2013-04-06 23:42:00,56.1,38.2,30.05,SE,146,5.0,12.0,51,0.00,,,0.00,Wunderground v.1.15,2013-04-07 04:42:00,
2013-04-06 23:47:00,56.0,38.1,30.05,East,98,3.0,12.0,51,0.00,,,0.00,Wunderground v.1.15,2013-04-07 04:47:00,
2013-04-06 23:52:00,55.8,37.9,30.05,South,185,2.0,9.0,51,0.00,,,0.00,Wunderground v.1.15,2013-04-07 04:52:00,
2013-04-06 23:57:00,55.6,37.7,30.05,ESE,122,7.0,9.0,51,0.00,,,0.00,Wunderground v.1.15,2013-04-07 04:57:00,